Weather in Dolgaya Polyana

Russia / Belgorod Oblast     51°09′06″N   37°44′58″E
temp.,
°C
wind,
m/s
gust,
m/s
humid.,
%
clouds,
%
prec.,
mm/h
press.,
hPa
HPBL,
m
10 august, wed
wed1000:00+21nne3563100 0.0 1018125
03:00+20n246963 0.0 101791
06:00+19nne357066 0.0 1017134
09:00+24ne3452100 0.0 1017413
12:00+29ne2233100 0.0 10161141
15:00+32ne3327100 0.0 10152271
18:00+30ne4633100 0.0 1015734
21:00+25ne51245100 0.0 1016539
11 august, thu
thu1100:00+22ne71362100 0.0 1016329
03:00+21ene61267100 0.0 1016340
06:00+20nne51074100 0.0 1018394
09:00+23ne796396 0.0 1018483
12:00+29ene673898 0.0 10171018
15:00+31ene6733100 0.0 10171908
18:00+30ne683799 0.0 10161575
21:00+26ene5134999 0.1 1018693
12 august, fri
fri1200:00+23ene71558100 0.0 1018637
03:00+21ne5127158 0.0 1018340
06:00+19ene51374100 0.0 1019371
09:00+24ene61053100 0.0 1020674
12:00+28ene794585 0.0 1020984
15:00+30ene6840100 0.0 10181658
18:00+30ne5840100 0.0 10181262
21:00+26ne61249100 0.0 1018511
13 august, sat
sat1300:00+21ne41170100 2.2 1019309
03:00+21ene41266100 2.2 1019337
06:00+21ene31074100 0.1 1019290
09:00+22ene51170100 0.1 1018383
12:00+23e41165100 0.0 1019609
15:00+29e574283 0.0 10171114
18:00+29ene6104159 0.0 10161047
21:00+25ene6155287 0.0 1016533
14 august, sun
sun1400:00+25e5125056 0.1 1016455
03:00+22e31056100 0.1 1015250
06:00+22e4125769 0.0 1015317
09:00+27ese584399 0.0 1015538
12:00+25e4950100 0.0 1016371
15:00+30e673191 0.0 10151161
18:00+29ene6103368 0.0 1014713
21:00+25ene61539100 0.0 1014429